Regional Weather Roundup
Issued by NWS

Home | Current Version | Previous Version | Text Only | Print | Product List | Glossary Off
Versions: 1 2 3 4 5 6 7 8 9 10 11 12 13 14 15 16 17 18 19 20 21 22 23 24 25 26 27 28 29 30 31 32 33 34 35 36 37 38 39 40 41 42 43 44 45 46 47 48 49 50

101
ASUS43 KLMK 170202
RWRKY
KENTUCKY REGIONAL WEATHER ROUNDUP
NATIONAL WEATHER SERVICE LOUISVILLE KY
900 PM EST SAT DEC 16 2017

NOTE "FAIR" INDICATES FEW OR NO CLOUDS BELOW 12,000 FEET
WITH NO SIGNIFICANT WEATHER AND/OR OBSTRUCTIONS TO VISIBILITY.

KYZ001>023-026-027-061>063-070>075-170300-
WESTERN AND SOUTH CENTRAL KENTUCKY

CITY           SKY/WX    TMP DP  RH WIND       PRES   REMARKS
PADUCAH        PTCLDY    46  28  49 S6        30.16R
HENDERSON      CLOUDY    40  29  64 S7        30.15S
OWENSBORO      CLOUDY    38  29  70 S6        30.17R WCI  33
HOPKINSVILLE   CLOUDY    45  28  50 S7        30.18R
BOWLING GREEN  CLOUDY    43  30  60 S7        30.20S
GLASGOW        NOT AVBL
$$

KYZ024-025-028>034-038-045-046-053-170300-
NORTH CENTRAL KENTUCKY

CITY           SKY/WX    TMP DP  RH WIND       PRES   REMARKS
LOUISVILLE/SDF CLOUDY    46  29  51 S8        30.16R
LOUISVILLE/LOU CLOUDY    43  30  60 S7        30.17R
FORT KNOX      CLOUDY    40  29  64 S8        30.14S WCI  34
$$

KYZ035>037-039>044-047>052-055>060-089>105-170300-
NORTHEAST KENTUCKY

CITY           SKY/WX    TMP DP  RH WIND       PRES   REMARKS
LEXINGTON      CLOUDY    40  29  64 S8        30.17R WCI  34
COVINGTON      PTCLDY    42  30  62 SW9       30.11R
FRANKFORT      CLOUDY    42  28  57 S8        30.15R
$$

KYZ054-064>069-076>088-106>120-170300-
SOUTHEAST KENTUCKY

CITY           SKY/WX    TMP DP  RH WIND       PRES   REMARKS
JACKSON        CLOUDY    41  26  55 S6        30.18S
LONDON         CLOUDY    39  26  59 S6        30.21R WCI  35
SOMERSET       NOT AVBL
MIDDLESBORO    PTCLDY    31  26  84 CALM      30.26R
MONTICELLO     CLOUDY    27  24  89 VRB6      30.23S WCI  20
$$





USA.gov is the U.S. government's official web portal to all federal, state and local government web resources and services.